Wind_Speed
31 32 32 34 35 36 38 42 44 48 51 50 49 49 52 54 53 52 55 55 55 54 53 52 52 50 46 45 44 42 41 40 38 37 36 36 35 35 34 34 36 37 38
28 29 31 32 33 33 35 40 41 44 47 48 48 48 51 52 50 50 53 54 54 53 51 51 50 49 47 45 43 42 41 40 38 37 36 35 34 33 34 35 35 36 37
26 27 29 30 30 30 33 37 38 41 44 46 46 46 48 50 49 49 52 53 52 51 51 51 50 49 47 45 43 41 40 38 37 36 36 34 33 32 33 34 35 36 37
25 26 27 28 28 29 31 33 35 38 42 43 43 45 47 46 46 48 49 51 50 49 50 50 49 49 47 44 42 40 39 38 36 35 35 34 33 32 33 34 35 36 37
24 25 25 27 27 28 30 31 34 37 40 41 41 44 44 42 43 45 47 47 48 47 48 49 48 46 44 42 41 40 39 36 35 34 34 33 32 32 32 32 34 35 36
22 23 25 26 27 28 28 30 33 36 38 39 40 43 42 40 41 43 44 44 44 45 45 46 46 46 44 42 41 39 36 35 34 34 33 32 31 31 31 32 33 34 35
21 23 24 25 26 27 29 30 32 34 36 38 39 40 42 41 40 40 43 43 43 43 43 44 44 44 44 41 38 36 35 35 35 33 31 30 31 31 32 32 33 34 36
21 22 23 24 24 25 27 29 30 32 34 35 36 38 40 40 39 40 41 41 41 41 41 41 42 43 42 39 37 36 36 35 34 33 32 30 31 32 32 32 33 35 37
23 22 23 22 23 25 27 30 31 32 31 32 35 37 39 40 40 40 40 41 40 39 38 38 40 41 39 38 37 36 35 34 34 33 32 31 30 31 32 32 33 35 37
23 23 23 23 24 26 26 29 32 32 32 33 35 35 37 39 40 40 39 39 39 38 38 38 38 37 36 37 37 36 35 33 33 33 31 30 31 31 31 32 33 35 37
23 22 22 23 24 25 26 29 30 31 32 33 34 36 37 39 39 38 38 37 37 37 38 37 36 36 36 37 36 35 34 33 32 31 30 30 30 31 32 33 34 35 37
23 23 23 24 25 26 26 28 29 29 30 32 34 35 36 37 38 38 38 36 36 36 36 37 36 36 37 36 36 34 33 32 32 31 30 30 30 31 31 32 33 35 37
24 23 23 23 24 25 26 28 29 30 31 32 32 33 34 35 36 37 37 36 35 35 35 35 36 36 36 35 34 34 33 33 32 30 29 29 30 30 30 31 32 34 35
23 24 24 24 24 25 26 27 29 30 30 31 31 32 33 33 33 34 35 35 34 34 34 35 35 35 35 34 33 33 32 32 30 30 29 29 30 30 30 30 32 33 34
22 23 24 24 24 26 27 28 28 29 31 31 30 29 31 32 33 33 33 34 34 33 34 34 34 33 33 33 32 33 32 31 30 30 30 30 30 30 29 30 32 32 33
22 23 24 24 24 25 27 28 28 28 30 30 31 30 30 31 32 32 32 32 32 32 32 33 33 32 31 31 31 31 30 29 29 28 28 28 28 28 29 30 31 32 32
21 22 23 23 23 23 25 27 27 28 29 31 32 32 31 31 31 31 31 31 31 31 31 31 31 30 30 30 30 29 28 28 27 27 27 27 27 27 28 29 30 30 31
21 21 22 22 22 23 23 24 26 27 29 30 31 33 32 31 32 32 32 31 32 32 31 31 30 29 29 29 29 28 27 27 27 26 26 26 25 26 27 28 29 29 30
21 21 21 21 21 22 22 24 25 26 28 30 31 32 33 32 32 32 32 32 32 32 31 30 30 29 28 28 28 28 27 26 26 26 25 25 24 25 26 27 27 28 29
21 21 22 22 22 23 23 24 26 27 28 29 31 32 33 33 33 32 32 32 32 31 29 29 29 28 27 27 27 26 25 25 25 24 23 23 24 24 25 26 26 27 27
20 21 22 22 23 23 23 24 26 27 28 28 30 31 32 34 33 32 32 32 31 30 28 28 28 27 26 25 25 25 24 24 23 23 23 23 23 23 24 24 25 25 26
19 19 21 22 22 23 24 24 26 27 28 28 29 30 31 32 32 32 32 31 30 29 28 28 27 26 25 24 24 23 23 22 22 22 22 21 21 22 22 23 23 23 25
19 19 20 21 22 23 25 26 25 26 27 28 29 30 30 29 30 32 31 30 30 29 28 27 27 26 24 23 22 23 22 21 21 20 20 20 20 21 21 22 23 23 24
19 20 20 22 22 23 24 25 26 26 27 28 29 29 28 28 30 30 30 30 29 29 28 27 26 25 24 22 21 21 21 19 19 18 18 18 19 20 21 22 22 22 23
19 20 21 21 22 22 23 24 25 26 26 28 29 28 28 28 29 30 29 29 29 29 27 27 26 25 24 22 21 20 19 18 17 17 17 17 18 19 20 20 20 20 21
19 20 20 20 20 21 22 23 24 25 26 26 27 28 27 27 28 29 29 28 29 29 28 27 26 25 24 22 21 19 18 17 17 17 17 17 18 18 18 18 18 18 20
Wind_Direction
265 254 247 246 246 245 242 237 234 231 228 226 226 226 225 223 223 225 225 225 226 227 229 230 232 234 235 239 241 245 246 250 254 258 262 265 270 274 278 281 285 290 293
264 251 245 245 244 246 242 237 234 231 228 226 226 225 223 221 222 224 223 224 226 227 228 229 231 233 235 238 242 244 246 250 254 257 260 264 268 273 278 283 287 291 294
265 256 250 247 246 244 240 235 234 229 226 224 224 222 219 220 222 223 223 224 224 226 228 229 231 233 235 239 241 243 245 248 252 255 259 263 268 272 277 283 287 291 295
265 259 253 247 244 240 237 235 232 227 224 224 224 221 218 220 221 221 222 222 222 225 227 228 231 233 235 237 239 241 244 247 250 254 259 263 267 271 276 282 287 291 294
265 259 251 245 242 240 235 234 230 225 223 224 223 220 220 221 219 219 220 221 223 225 227 229 231 232 233 235 238 241 243 246 250 254 258 263 268 272 277 282 287 291 295
268 257 249 245 242 240 236 233 230 226 225 226 223 220 220 219 216 217 218 221 225 225 226 228 230 231 232 235 237 239 242 245 250 254 258 263 267 271 276 282 287 291 294
268 258 251 247 243 241 238 231 227 224 225 223 222 221 218 215 215 216 218 221 224 224 225 227 228 230 231 231 234 236 241 244 249 254 258 262 266 270 277 282 286 289 294
270 258 251 247 244 241 235 228 222 220 221 220 221 220 216 216 217 217 218 220 221 223 224 225 227 227 229 230 234 237 239 243 248 253 257 261 265 270 276 281 285 289 293
267 256 252 251 245 240 236 227 223 221 221 220 219 219 218 217 218 219 220 221 221 221 222 223 224 226 229 230 233 236 238 242 247 251 256 260 266 272 277 281 287 292 296
262 256 252 249 242 237 236 232 227 225 224 222 218 218 217 217 220 221 221 221 221 221 221 221 221 224 226 229 231 235 239 243 248 252 255 261 268 274 277 281 287 293 298
260 254 254 248 242 239 237 232 228 228 226 221 217 218 218 218 219 221 221 220 220 222 221 221 222 223 225 228 230 234 239 242 246 251 256 263 270 274 277 281 287 292 298
260 253 251 248 243 239 235 229 227 226 223 219 218 219 218 217 217 219 219 218 219 220 221 219 221 224 225 228 231 235 239 242 245 250 256 263 269 275 279 282 287 292 298
258 251 249 246 239 235 231 226 225 224 220 218 218 219 216 215 216 217 218 217 218 219 218 219 221 222 224 227 231 234 238 240 244 251 258 264 270 275 280 284 289 296 301
254 247 244 240 234 231 228 224 221 220 219 216 216 216 217 218 215 214 215 215 216 216 217 219 221 223 224 228 231 234 237 239 246 253 259 265 270 274 280 286 292 297 301
249 242 238 236 232 228 224 221 219 218 217 214 213 212 214 215 214 213 214 216 216 218 219 222 224 224 226 228 233 235 238 241 248 254 261 267 271 274 282 289 294 298 301
245 238 235 233 231 228 222 219 219 216 215 213 212 209 209 210 211 212 214 215 216 217 219 221 223 225 227 229 232 234 237 242 249 256 263 268 273 278 284 289 293 297 301
242 236 234 231 228 224 220 219 217 217 216 213 211 209 209 209 208 210 212 213 214 217 219 222 222 224 226 229 231 233 238 244 251 258 264 269 274 279 284 290 294 297 301
238 232 229 226 224 221 219 219 217 215 212 210 210 210 208 208 209 211 212 212 214 218 220 222 223 225 227 229 231 233 238 244 252 259 265 270 275 278 284 290 294 297 301
235 231 229 226 223 219 218 217 215 214 212 212 210 210 209 209 210 211 211 212 215 218 220 222 224 226 228 229 232 234 239 246 253 259 263 269 274 278 285 290 295 298 301
233 230 227 223 221 220 219 217 216 214 211 211 209 208 209 209 209 210 209 210 214 218 220 222 223 224 226 229 232 235 240 245 251 255 260 267 274 279 285 290 295 299 303
231 228 225 224 223 223 220 217 215 212 210 209 209 207 208 208 209 210 208 210 215 217 218 217 218 220 223 228 231 235 239 243 248 254 260 267 273 278 283 290 296 300 303
229 227 227 226 224 222 218 216 214 210 207 206 207 206 206 207 208 209 208 210 212 214 215 216 218 219 222 225 229 234 236 240 247 254 260 267 272 277 285 294 298 300 304
230 229 228 224 221 219 217 216 212 209 207 205 203 203 204 206 207 208 207 208 209 211 212 215 218 219 221 224 228 231 235 243 251 256 259 265 271 280 289 294 297 299 303
231 229 224 220 218 216 216 214 209 207 206 204 201 200 202 205 206 206 207 207 207 209 211 215 217 218 220 223 225 228 234 241 248 250 257 266 274 282 289 293 296 300 304
228 223 220 219 216 213 211 208 205 204 203 202 202 201 202 204 206 206 207 206 208 209 212 213 216 218 219 220 222 226 231 238 243 249 258 268 277 283 289 293 295 299 306
223 217 215 214 211 208 207 204 202 203 202 200 201 202 204 206 206 206 206 205 206 209 212 214 216 216 216 218 223 225 231 238 243 250 260 270 279 285 290 292 294 301 309
Height
5494 5494 5495 5498 5501 5504 5507 5512 5518 5526 5533 5540 5549 5557 5565 5574 5583 5592 5602 5612 5621 5631 5639 5648 5655 5663 5670 5675 5680 5685 5690 5694 5696 5699 5700 5701 5701 5701 5701 5700 5699 5697 5694
5486 5487 5489 5491 5494 5496 5500 5504 5510 5516 5523 5531 5539 5547 5556 5565 5574 5583 5593 5602 5612 5621 5630 5638 5645 5653 5659 5665 5671 5676 5681 5684 5687 5690 5691 5693 5693 5693 5693 5692 5691 5688 5686
5481 5481 5483 5485 5487 5489 5493 5498 5503 5508 5515 5523 5530 5538 5547 5556 5566 5575 5584 5593 5602 5611 5620 5629 5636 5643 5650 5656 5662 5667 5672 5675 5678 5681 5683 5684 5685 5685 5685 5684 5682 5680 5678
5475 5476 5477 5479 5481 5484 5488 5492 5496 5502 5509 5516 5523 5531 5540 5549 5557 5566 5575 5584 5593 5602 5610 5619 5627 5634 5641 5647 5653 5659 5663 5666 5669 5672 5675 5676 5677 5677 5677 5676 5675 5672 5670
5470 5471 5472 5474 5476 5479 5483 5487 5491 5496 5502 5509 5516 5524 5533 5541 5549 5557 5566 5575 5584 5592 5601 5609 5617 5625 5632 5638 5645 5650 5654 5658 5661 5664 5666 5668 5669 5669 5669 5669 5667 5665 5662
5465 5466 5467 5469 5471 5474 5478 5482 5486 5491 5497 5503 5510 5518 5526 5534 5542 5550 5559 5567 5575 5584 5592 5600 5608 5616 5623 5630 5636 5641 5646 5650 5653 5656 5658 5660 5661 5661 5661 5660 5659 5657 5654
5460 5460 5462 5464 5466 5469 5472 5477 5481 5487 5492 5498 5505 5512 5520 5527 5535 5544 5552 5560 5568 5576 5584 5592 5600 5608 5615 5621 5627 5632 5637 5641 5645 5648 5650 5652 5653 5653 5653 5652 5650 5648 5646
5455 5455 5456 5458 5461 5464 5468 5472 5476 5482 5487 5494 5500 5506 5513 5521 5529 5537 5545 5553 5561 5569 5576 5584 5592 5600 5607 5613 5618 5624 5629 5633 5637 5640 5642 5644 5645 5645 5644 5644 5642 5640 5637
5450 5450 5451 5453 5455 5459 5463 5467 5472 5477 5483 5488 5494 5501 5508 5515 5522 5530 5538 5546 5553 5561 5569 5576 5584 5592 5598 5605 5611 5616 5621 5625 5628 5631 5634 5635 5636 5637 5637 5636 5634 5632 5629
5444 5445 5446 5448 5451 5454 5458 5462 5467 5472 5478 5483 5489 5496 5502 5509 5517 5524 5532 5539 5546 5554 5562 5569 5577 5584 5590 5596 5602 5608 5613 5618 5621 5624 5626 5628 5628 5629 5628 5627 5626 5624 5620
5438 5439 5440 5443 5446 5449 5453 5457 5462 5467 5472 5478 5484 5490 5497 5504 5511 5517 5524 5532 5540 5547 5555 5562 5570 5577 5583 5589 5595 5601 5606 5610 5613 5616 5618 5620 5621 5621 5620 5619 5617 5615 5612
5432 5434 5435 5437 5440 5444 5448 5452 5457 5462 5468 5473 5479 5486 5492 5497 5504 5511 5518 5525 5533 5540 5548 5556 5563 5570 5576 5582 5588 5593 5597 5601 5605 5608 5611 5612 5613 5613 5612 5610 5609 5607 5604
5425 5427 5429 5431 5435 5438 5443 5447 5452 5457 5463 5468 5474 5480 5486 5492 5498 5504 5512 5518 5526 5534 5541 5549 5556 5562 5569 5574 5580 5585 5589 5593 5597 5600 5603 5605 5605 5605 5603 5603 5601 5598 5595
5419 5421 5423 5426 5430 5434 5438 5442 5447 5452 5457 5463 5469 5474 5480 5486 5492 5499 5506 5513 5520 5527 5534 5541 5548 5554 5561 5567 5572 5577 5582 5587 5590 5593 5595 5596 5597 5597 5596 5595 5593 5590 5587
5412 5414 5417 5420 5424 5428 5432 5437 5441 5447 5452 5457 5463 5469 5475 5481 5488 5494 5501 5508 5515 5522 5528 5535 5541 5547 5553 5559 5565 5570 5575 5579 5583 5585 5587 5589 5589 5589 5589 5588 5586 5583 5580
5406 5408 5411 5415 5419 5423 5427 5432 5436 5441 5446 5452 5458 5464 5470 5477 5482 5489 5496 5503 5510 5516 5523 5529 5535 5541 5547 5553 5558 5563 5568 5573 5576 5578 5580 5581 5582 5582 5581 5580 5578 5575 5572
5400 5403 5406 5410 5414 5418 5422 5427 5431 5436 5440 5446 5452 5459 5465 5472 5478 5484 5491 5498 5504 5511 5517 5524 5530 5536 5541 5547 5552 5557 5562 5566 5569 5571 5573 5574 5575 5575 5574 5573 5571 5568 5565
5395 5398 5402 5406 5409 5414 5417 5421 5426 5431 5436 5442 5447 5454 5460 5467 5473 5479 5486 5493 5499 5506 5512 5518 5524 5530 5536 5541 5546 5551 5555 5559 5562 5564 5566 5567 5567 5568 5567 5566 5563 5561 5558
5391 5394 5397 5401 5405 5409 5413 5417 5421 5426 5431 5437 5442 5449 5455 5461 5468 5474 5481 5488 5495 5502 5508 5513 5519 5525 5530 5535 5540 5545 5549 5553 5555 5557 5559 5560 5561 5561 5560 5558 5556 5554 5551
5386 5389 5392 5396 5400 5404 5408 5412 5416 5421 5426 5432 5438 5444 5450 5456 5463 5470 5476 5483 5490 5496 5502 5508 5514 5519 5524 5529 5534 5539 5543 5546 5549 5551 5552 5554 5554 5554 5553 5551 5549 5547 5544
5381 5384 5387 5391 5395 5399 5403 5407 5411 5416 5421 5426 5432 5438 5445 5452 5458 5465 5472 5478 5484 5491 5497 5503 5508 5514 5518 5523 5528 5532 5536 5540 5542 5544 5546 5547 5547 5547 5546 5545 5543 5540 5538
5376 5379 5382 5386 5390 5393 5397 5401 5406 5411 5416 5422 5428 5433 5440 5446 5453 5460 5466 5473 5479 5485 5492 5497 5503 5508 5513 5518 5523 5527 5531 5533 5536 5538 5540 5540 5541 5540 5539 5538 5536 5534 5532
5372 5375 5378 5381 5384 5388 5392 5396 5401 5406 5412 5417 5423 5429 5436 5442 5449 5455 5462 5468 5474 5480 5486 5492 5498 5503 5508 5513 5517 5521 5525 5528 5530 5532 5533 5534 5534 5534 5533 5532 5530 5528 5525
5367 5370 5373 5376 5380 5383 5387 5392 5397 5402 5407 5413 5419 5426 5432 5438 5444 5451 5457 5463 5469 5475 5481 5487 5493 5498 5503 5508 5512 5515 5519 5522 5524 5526 5527 5528 5528 5528 5527 5526 5524 5522 5519
5363 5366 5369 5372 5375 5379 5384 5388 5393 5398 5404 5409 5415 5422 5428 5434 5440 5447 5453 5458 5464 5471 5477 5482 5488 5493 5498 5503 5507 5510 5513 5516 5518 5520 5521 5522 5522 5522 5521 5520 5519 5516 5514
5359 5361 5365 5368 5371 5375 5380 5385 5390 5395 5401 5406 5412 5418 5425 5430 5436 5442 5448 5454 5460 5467 5472 5478 5483 5488 5493 5498 5502 5505 5508 5511 5513 5515 5516 5516 5517 5517 5516 5515 5513 5511 5509